Regional Weather Roundup
Issued by NWS

Home | Current Version | Previous Version | Text Only | Print | Product List | Glossary Off
Versions: 1 2 3 4 5 6 7 8 9 10 11 12 13 14 15 16 17 18 19 20 21 22 23 24 25 26 27 28 29 30 31 32 33 34 35 36 37 38 39 40 41 42 43 44 45 46 47 48 49 50

000
ASUS43 KLOT 282222
RWRIL

ILLINOIS REGIONAL WEATHER ROUNDUP
NATIONAL WEATHER SERVICE CHICAGO/ROMEOVILLE IL
500 PM CDT FRI AUG 28 2015

NOTE: "FAIR" INDICATES FEW OR NO CLOUDS BELOW 12,000 FEET WITH NO
SIGNIFICANT WEATHER AND/OR OBSTRUCTIONS TO VISIBILITY.

* THESE STATIONS ARE NOT UNDER NWS QUALITY CONTROL. THEY ALSO MAY NOT
  REPORT WEATHER SUCH AS PRECIPITATION OR FOG.

ILZ001-002-007-009-015-016-024-282300-
NORTHWEST ILLINOIS

CITY           SKY/WX    TMP DP  RH WIND       PRES   REMARKS
MOLINE         NOT AVBL
STERLING*      CLOUDY    70  64  83 E7        30.03R
SAVANNA*       CLOUDY    70  61  74 E6        30.04S
$$

ILZ003-004-008-010-011-017-018-282300-
NORTH CENTRAL ILLINOIS

CITY           SKY/WX    TMP DP  RH WIND       PRES   REMARKS
ROCKFORD       CLOUDY    69  61  75 E5        30.08S
FREEPORT*      CLOUDY    66  63  91 E5        30.07F
ROCHELLE*      CLOUDY    68  63  83 E5        30.07R
DE KALB*       CLOUDY    68  64  85 E5        30.09R
PERU*          CLOUDY    73  62  67 SE10      30.04F
$$

ILZ005-006-012>014-019>023-282300-
NORTHEAST ILLINOIS

CITY           SKY/WX    TMP DP  RH WIND       PRES   REMARKS
CHICAGO-OHARE  CLOUDY    72  60  66 SE6       30.07F
CHICAGO-MIDWAY CLOUDY    75  59  57 SE7       30.07F
AURORA         CLOUDY    72  64  76 CALM      30.08S
LANSING*       CLOUDY    73  62  68 SE3       30.08F
JOLIET*        CLOUDY    74  64  71 SE5       30.07S
WAUKEGAN       CLOUDY    69  62  78 CALM      30.08F
DUPAGE AIRPORT CLOUDY    71  61  70 E5        30.07F
KANKAKEE*      CLOUDY    74  64  69 CALM      30.08S
WHEELING       CLOUDY    72  58  61 VRB3      30.09F
MORRIS*        CLOUDY    71  64  79 SE5       30.05S
ROMEOVILLE*    CLOUDY    72  62  71 SE7       30.07S
NORTHERLY ISL    N/A     68  59  73 CALM        N/A
$$

LMZ740>746-282300-
SOUTHERN LAKE MICHIGAN

STATION/POSITION SKY/WX   TEMP    WIND        PRES    VSBY  WAVE
                          AIR SEA DIR/SP/G                  HT/PER
                          (F)     (DEG/KT/KT) (MB)    (MI)  (FT/S)
SOUTHERN BUOY              68 69  160/  6/  6 1018.8F         1
WILMETTE HARBOR            65 60  250/  4/  4   N/A           0
HARRISON CRIB              70     140/  6/  7   N/A
BURNHAM HARBOR             68      CALM  /  3   N/A
BURNS HARBOR               74     210/  6/  7 1019.3
MICHIGAN CITY              71      30/  4/  4   N/A
MICHIGAN CITY 6N           71 72   80/  4/  6   N/A           0
ST. JOSEPH                 71 72   90/  4/  4   N/A           0
$$

ILZ025>027-034>036-040-047-049-050-058-095>099-282300-
WEST-CENTRAL ILLINOIS

CITY           SKY/WX    TMP DP  RH WIND       PRES   REMARKS
QUINCY         CLOUDY    74  63  68 S12       29.99F
GALESBURG*     CLOUDY    71  63  77 SE5       30.01F
MACOMB*        CLOUDY    72  62  70 SE8       30.03F
JACKSONVILLE*  CLOUDY    78  62  58 SE9       30.02F
PITTSFIELD*    CLOUDY    76  62  60 SE7       30.02F
$$

ILZ028>032-037-038-041>044-048-051>054-059>061-282300-
CENTRAL ILLINOIS

CITY           SKY/WX    TMP DP  RH WIND       PRES   REMARKS
PONTIAC        CLOUDY    75  67  75 SE5       30.06S
BLOOMINGTON    CLOUDY    77  61  57 S15       30.06F
DECATUR        PTSUNNY   78  58  49 SE10      30.06F
PEORIA         CLOUDY    77  59  53 S9        30.02F
LACON*         CLOUDY    73  62  68 SE6       30.02F
LINCOLN*       CLOUDY    79  58  48 S9G17     30.04F HX  80
SPRINGFIELD    CLOUDY    79  59  50 SE15G21   30.04F HX  80
TAYLORVILLE      N/A     77  59  53 S9        30.05F
$$

ILZ033-039-045-046-055>057-062-063-282300-
EAST-CENTRAL ILLINOIS

CITY           SKY/WX    TMP DP  RH WIND       PRES   REMARKS
CHAMPAIGN      CLOUDY    78  57  48 SE10      30.07F
RANTOUL*       CLOUDY    80  62  54 SE7       30.08S HX  81
MATTOON        PTSUNNY   78  54  43 SE9       30.07F
PARIS*         MOSUNNY   79  60  52 E8        30.09S HX  80
$$

ILZ079-100>102-282300-
SOUTHWEST ILLINOIS

CITY           SKY/WX    TMP DP  RH WIND       PRES   REMARKS
ALTON          CLOUDY    77  61  57 S8        30.04F
BELLEVILLE     MOSUNNY   80  64  58 E6        30.03F HX  81
CAHOKIA*       MOSUNNY   80  60  50 SE8       30.03F HX  81
SPARTA*        MOSUNNY   78  61  54 SE6       30.06S HX  80
$$

ILZ064>066-069>071-074>076-080>082-084>086-088>090-092>094-282300-
SOUTH-CENTRAL ILLINOIS

CITY           SKY/WX    TMP DP  RH WIND       PRES   REMARKS
CARBONDALE     SUNNY     80  61  52 S9        30.05F HX  81
CAIRO*         PTSUNNY   81  67  61 S3        30.04S HX  83
EFFINGHAM*     PTSUNNY   81  52  36 SE8       30.08S HX  80
MARION         MOSUNNY   82  63  51 SE7       30.06F HX  83
MT. VERNON     SUNNY     82  59  44 SE7       30.06F HX  82
SALEM*         MOSUNNY   81  57  44 SE5       30.06S HX  81
METROPOLIS*    MOSUNNY   84  67  56 NE5       30.04F HX  87
$$

ILZ067-068-072-073-078-083-087-091-282300-
SOUTHEAST ILLINOIS

CITY           SKY/WX    TMP DP  RH WIND       PRES   REMARKS
LAWRENCEVILLE  SUNNY     80  58  46 SE6       30.07F HX  80
FLORA*         SUNNY     80  56  42 SE6       30.06F HX  80
FAIRFIELD*     SUNNY     80  58  47 SE9       30.05F HX  81
HARRISBURG*    MOSUNNY   82  63  52 SE6       30.06F HX  83
ROBINSON*      MOSUNNY   80  57  46 SE6       30.08F HX  80
CARMI*         MOSUNNY   80  62  53 S7        30.05F HX  82
$$

ABBREVIATIONS USED IN REMARKS
   TC - TEMPERATURE IN CELSIUS
  WCI - WIND CHILL INDEX
   HX - HEAT INDEX
  VSB - VISIBILITY
$$



USA.gov is the U.S. government's official web portal to all federal, state and local government web resources and services.